Weather in Changchun

China     43°54′35″N   125°17′52″E
temp.,
°C
wind,
m/s
gust,
m/s
humid.,
%
clouds,
%
prec.,
mm/h
press.,
hPa
HPBL,
m
16 may, sun
sun1623:00+11sw333621 0.0 101243
02:00+10sw2238100 0.0 101132
05:00+10w2240100 0.0 101116
08:00+17wnw112831 0.0 1010373
11:00+22nnw3421100 0.0 10082290
14:00+24n4514100 0.0 10062656
17:00+23n4415100 0.0 10042804
20:00+18n112111 0.0 100611
17 may, mon
mon1723:00+15ssw343364 0.0 100660
02:00+14sw46372 0.0 100686
05:00+12sw39390 0.0 1006161
08:00+20wsw56220 0.0 1006618
11:00+25wnw34170 0.0 10062214
14:00+27wnw44140 0.0 10042891
17:00+27wnw23150 0.0 10033069
20:00+21sw33220 0.0 100426
18 may, tue
tue1823:00+19ssw513290 0.0 1005269
02:00+18ssw617250 0.0 1004412
05:00+17ssw617240 0.0 1003433
08:00+24ssw1014170 0.0 1003869
11:00+28sw1012170 0.0 10011400
14:00+31sw910155 0.0 10002796
17:00+30ssw7101517 0.0 9993250
20:00+24sw511265 0.0 1002313
19 may, wed
wed1923:00+21ssw494054 0.0 1003191
02:00+19s61544100 0.0 1002535
05:00+18ssw5124142 0.0 1003545
08:00+23sw81131100 0.0 10031019
11:00+28wsw8112475 0.0 10021578
14:00+31sw9121733 0.0 10012817
17:00+31wsw6121881 0.0 10014049
20:00+22wsw513375 0.2 1005391
20 may, thu
thu2023:00+22sw615354 0.1 1006634
02:00+20sw9183381 0.1 1006766
05:00+18ssw818420 0.0 1006651
08:00+23sw914270 0.0 10061033
11:00+28sw911160 0.0 10051697
14:00+30sw8101384 0.0 10032285
17:00+28sw78150 0.0 10022147
20:00+22s49250 0.0 1004139